TimeEDT,TemperatureF,Dew PointF,Humidity,Sea Level PressureIn,VisibilityMPH,Wind Direction,Wind SpeedMPH,Gust SpeedMPH,PrecipitationIn,Events,Conditions,WindDirDegrees,DateUTC
12:06 AM,68.0,66.2,94,29.77,1.0,Calm,Calm,-,N/A,,Overcast,0,2013-09-13 04:06:00
12:27 AM,68.0,66.2,94,29.76,1.5,Calm,Calm,-,N/A,,Overcast,0,2013-09-13 04:27:00
12:45 AM,68.0,66.2,94,29.76,1.5,Calm,Calm,-,N/A,,Overcast,0,2013-09-13 04:45:00
1:06 AM,68.0,66.2,94,29.75,1.8,Calm,Calm,-,N/A,,Overcast,0,2013-09-13 05:06:00
1:27 AM,68.0,66.2,94,29.75,1.8,Calm,Calm,-,N/A,,Overcast,0,2013-09-13 05:27:00
1:45 AM,68.0,66.2,94,29.75,1.8,Calm,Calm,-,N/A,,Overcast,0,2013-09-13 05:45:00
2:06 AM,68.0,66.2,94,29.74,1.5,Calm,Calm,-,N/A,,Overcast,0,2013-09-13 06:06:00
2:27 AM,66.2,64.4,94,29.74,1.8,Calm,Calm,-,N/A,,Mostly Cloudy,0,2013-09-13 06:27:00
2:45 AM,64.4,64.4,100,29.73,2.0,Calm,Calm,-,N/A,,Scattered Clouds,0,2013-09-13 06:45:00
3:06 AM,64.4,64.4,100,29.72,1.5,Calm,Calm,-,N/A,,Mostly Cloudy,0,2013-09-13 07:06:00
3:27 AM,64.4,62.6,94,29.73,1.8,Calm,Calm,-,N/A,,Scattered Clouds,0,2013-09-13 07:27:00
3:45 AM,64.4,62.6,94,29.73,1.8,Calm,Calm,-,N/A,,Scattered Clouds,0,2013-09-13 07:45:00
4:06 AM,64.4,62.6,94,29.73,1.8,Calm,Calm,-,N/A,,Unknown,0,2013-09-13 08:06:00
4:27 AM,64.4,62.6,94,29.74,1.5,Calm,Calm,-,N/A,,Unknown,0,2013-09-13 08:27:00
4:45 AM,62.6,62.6,100,29.73,2.5,Calm,Calm,-,N/A,,Scattered Clouds,0,2013-09-13 08:45:00
5:06 AM,62.6,62.6,100,29.73,2.0,Calm,Calm,-,N/A,,Scattered Clouds,0,2013-09-13 09:06:00
5:27 AM,62.6,62.6,100,29.74,1.5,Calm,Calm,-,N/A,,Scattered Clouds,0,2013-09-13 09:27:00
5:45 AM,62.6,62.6,100,29.74,1.5,Calm,Calm,-,N/A,,Unknown,0,2013-09-13 09:45:00
6:06 AM,62.6,60.8,94,29.75,1.8,Calm,Calm,-,N/A,,Unknown,0,2013-09-13 10:06:00
6:27 AM,62.6,60.8,94,29.75,2.0,Calm,Calm,-,N/A,,Clear,0,2013-09-13 10:27:00
6:45 AM,62.6,60.8,94,29.76,2.0,Calm,Calm,-,N/A,,Clear,0,2013-09-13 10:45:00
7:06 AM,62.6,60.8,94,29.76,1.5,Calm,Calm,-,N/A,,Unknown,0,2013-09-13 11:06:00
7:27 AM,62.6,60.8,94,29.77,1.2,Calm,Calm,-,N/A,,Overcast,0,2013-09-13 11:27:00
7:48 AM,62.6,62.6,100,29.77,1.5,NNW,3.5,-,N/A,,Overcast,340,2013-09-13 11:48:00
8:06 AM,62.6,60.8,94,29.77,5.0,WNW,3.5,-,N/A,,Overcast,300,2013-09-13 12:06:00
8:27 AM,62.6,62.6,100,29.78,2.0,Calm,Calm,-,N/A,,Overcast,0,2013-09-13 12:27:00
8:48 AM,64.4,62.6,94,29.80,1.8,West,3.5,-,N/A,,Overcast,280,2013-09-13 12:48:00
9:06 AM,64.4,62.6,94,29.80,5.0,WNW,4.6,-,N/A,,Overcast,290,2013-09-13 13:06:00
9:24 AM,62.6,62.6,100,29.80,5.0,WNW,4.6,-,N/A,,Mostly Cloudy,300,2013-09-13 13:24:00
9:48 AM,64.4,60.8,88,29.81,10.0,NW,3.5,-,N/A,,Mostly Cloudy,310,2013-09-13 13:48:00
10:06 AM,64.4,60.8,88,29.81,7.0,WNW,5.8,-,N/A,,Mostly Cloudy,300,2013-09-13 14:06:00
10:27 AM,64.4,60.8,88,29.81,10.0,WNW,3.5,-,N/A,,Overcast,290,2013-09-13 14:27:00
10:48 AM,68.0,60.8,78,29.81,10.0,NW,6.9,-,N/A,,Scattered Clouds,310,2013-09-13 14:48:00
11:06 AM,71.6,59.0,64,29.81,10.0,NNW,9.2,17.3,N/A,,Scattered Clouds,340,2013-09-13 15:06:00
11:27 AM,71.6,57.2,60,29.81,10.0,NW,10.4,17.3,N/A,,Scattered Clouds,320,2013-09-13 15:27:00
11:48 AM,73.4,57.2,57,29.81,10.0,NW,8.1,17.3,N/A,,Scattered Clouds,310,2013-09-13 15:48:00
12:06 PM,75.2,55.4,50,29.81,10.0,NW,12.7,18.4,N/A,,Clear,320,2013-09-13 16:06:00
12:27 PM,75.2,53.6,47,29.81,10.0,NW,12.7,21.9,N/A,,Scattered Clouds,310,2013-09-13 16:27:00
12:48 PM,75.2,51.8,44,29.80,10.0,WNW,10.4,18.4,N/A,,Scattered Clouds,300,2013-09-13 16:48:00
1:06 PM,75.2,51.8,44,29.81,10.0,NW,11.5,19.6,N/A,,Scattered Clouds,310,2013-09-13 17:06:00
1:27 PM,73.4,51.8,47,29.81,10.0,WNW,10.4,20.7,N/A,,Scattered Clouds,300,2013-09-13 17:27:00
1:48 PM,73.4,50.0,44,29.79,10.0,NW,13.8,20.7,N/A,,Scattered Clouds,310,2013-09-13 17:48:00
2:06 PM,75.2,50.0,41,29.79,10.0,West,10.4,16.1,N/A,,Scattered Clouds,280,2013-09-13 18:06:00
2:27 PM,77.0,50.0,39,29.78,10.0,West,13.8,18.4,N/A,,Scattered Clouds,260,2013-09-13 18:27:00
2:48 PM,73.4,50.0,44,29.79,10.0,WNW,12.7,16.1,N/A,,Mostly Cloudy,290,2013-09-13 18:48:00
3:06 PM,77.0,48.2,36,29.79,10.0,NW,10.4,18.4,N/A,,Scattered Clouds,310,2013-09-13 19:06:00
3:27 PM,78.8,46.4,32,29.79,10.0,NW,11.5,17.3,N/A,,Mostly Cloudy,310,2013-09-13 19:27:00
3:48 PM,77.0,46.4,34,29.79,10.0,NW,10.4,17.3,N/A,,Mostly Cloudy,320,2013-09-13 19:48:00
4:09 PM,77.0,48.2,36,29.79,10.0,North,9.2,-,N/A,,Scattered Clouds,360,2013-09-13 20:09:00
4:27 PM,73.4,46.4,38,29.79,10.0,NW,9.2,17.3,N/A,,Clear,320,2013-09-13 20:27:00
4:48 PM,75.2,44.6,34,29.79,10.0,NW,9.2,18.4,N/A,,Clear,310,2013-09-13 20:48:00
5:09 PM,73.4,44.6,36,29.78,10.0,West,11.5,16.1,N/A,,Clear,280,2013-09-13 21:09:00
5:27 PM,75.2,44.6,34,29.79,10.0,WNW,11.5,16.1,N/A,,Mostly Cloudy,290,2013-09-13 21:27:00
5:48 PM,73.4,44.6,36,29.80,10.0,WNW,11.5,17.3,N/A,,Overcast,300,2013-09-13 21:48:00
6:09 PM,73.4,48.2,41,29.81,10.0,NW,8.1,23.0,N/A,,Overcast,320,2013-09-13 22:09:00
6:27 PM,69.8,46.4,43,29.82,10.0,NW,10.4,16.1,N/A,,Mostly Cloudy,320,2013-09-13 22:27:00
6:48 PM,69.8,46.4,43,29.83,10.0,NW,10.4,18.4,N/A,,Overcast,310,2013-09-13 22:48:00
7:09 PM,69.8,48.2,46,29.85,10.0,WNW,6.9,-,N/A,,Overcast,300,2013-09-13 23:09:00
7:27 PM,68.0,50.0,52,29.85,10.0,NW,9.2,17.3,N/A,,Overcast,310,2013-09-13 23:27:00
7:48 PM,66.2,50.0,56,29.87,10.0,NW,8.1,-,N/A,,Mostly Cloudy,310,2013-09-13 23:48:00
8:09 PM,64.4,50.0,59,29.88,10.0,NW,6.9,-,N/A,,Mostly Cloudy,310,2013-09-14 00:09:00
8:27 PM,64.4,51.8,64,29.90,10.0,NW,5.8,-,N/A,,Scattered Clouds,310,2013-09-14 00:27:00
8:48 PM,62.6,50.0,63,29.90,10.0,WNW,5.8,-,N/A,,Scattered Clouds,300,2013-09-14 00:48:00
9:09 PM,62.6,51.8,68,29.91,10.0,WNW,5.8,-,N/A,,Scattered Clouds,290,2013-09-14 01:09:00
9:27 PM,62.6,51.8,68,29.92,10.0,NW,4.6,-,N/A,,Mostly Cloudy,310,2013-09-14 01:27:00
9:48 PM,62.6,51.8,68,29.93,10.0,WNW,4.6,-,N/A,,Mostly Cloudy,300,2013-09-14 01:48:00
10:09 PM,62.6,51.8,68,29.93,10.0,WNW,6.9,-,N/A,,Mostly Cloudy,300,2013-09-14 02:09:00
10:27 PM,60.8,51.8,72,29.94,10.0,NW,6.9,-,N/A,,Mostly Cloudy,320,2013-09-14 02:27:00
10:48 PM,60.8,50.0,68,29.94,10.0,WNW,4.6,-,N/A,,Mostly Cloudy,300,2013-09-14 02:48:00
11:09 PM,60.8,50.0,68,29.94,10.0,WNW,6.9,-,N/A,,Mostly Cloudy,300,2013-09-14 03:09:00
11:27 PM,60.8,50.0,68,29.95,10.0,NW,9.2,-,N/A,,Mostly Cloudy,320,2013-09-14 03:27:00
11:48 PM,60.8,50.0,68,29.95,10.0,WNW,8.1,-,N/A,,Overcast,300,2013-09-14 03:48:00